Spokane, WA

2:43 AM PST on February 22, 2017 (GMT -0800)
Spokane International

Weather History for KGEG - January, 2014

Change the Weather History Date:

Friday, January 10, 2014

  Actual Average Record
Temperature  
Mean Temperature 37 °F 29 °F  
Max Temperature 40 °F 34 °F 50 °F (2006)
Min Temperature 33 °F 24 °F -11 °F (1974)
Degree Days  
Heating Degree Days 28 36  
Month to date heating degree days 349 370  
Since 1 July heating degree days 3217 3204  
Cooling Degree Days 0 0  
Month to date cooling degree days 0 0  
Year to date cooling degree days 0 0  
Moisture  
Dew Point 32 °F    
Average Humidity 83    
Maximum Humidity 96    
Minimum Humidity 70    
Precipitation  
Precipitation T in 0.06 in 0.94 in (2006)
Month to date precipitation 0.52 0.64  
Year to date precipitation 0.52 0.64  
Snow  
Snow 0.00 in 0.50 in 5.80 in (1979)
Month to date snowfall 2.5 4.7  
Since 1 July snowfall 9.3 26.8  
Snow Depth 1.00 in    
Sea Level Pressure  
Sea Level Pressure 29.84 in    
Wind  
Wind Speed 17 mph (SSW)    
Max Wind Speed 26 mph    
Max Gust Speed 33 mph    
Visibility 10 miles    
Events Rain    
T = Trace of Precipitation, MM = Missing Value Source: NWS Daily Summary

Daily Weather History Graph

Daily Weather History Graph

Search for Another Location

Airport or City:

Trip Planner

Search our weather history database for the weather conditions in past years. The results will help you decide how hot, cold, wet, or windy it might be!

Date:

Astronomy

Jan. 10, 2014 Rise Set
Actual Time 7:36 AM PST 4:19 PM PST
Civil Twilight 7:01 AM PST 4:54 PM PST
Nautical Twilight 6:22 AM PST 5:33 PM PST
Astronomical Twilight 5:45 AM PST 6:10 PM PST
Moon 12:32 PM PST (1/10) 2:41 AM PST (1/10)
Length of Visible Light 9h 53m
Length of Day
8h 43m
Waxing Gibbous, 76% of the Moon is Illuminated
Jan 10
Waxing Gibbous
Jan 15
Full
Jan 23
Last Quarter
Jan 30
New
Feb 6
First Quarter

Hourly Weather History & Observations

Time (PST) Temp. Windchill Dew Point Humidity Pressure Visibility Wind Dir Wind Speed Gust Speed Precip Events Conditions
12:00 AM 35.6 °F 24.8 °F 32.0 °F 87% 29.65 in 10.0 mi SSW 19.6 mph 26.5 mph N/A   Overcast
12:30 AM 35.6 °F 24.0 °F 32.0 °F 87% 29.65 in 10.0 mi SW 23.0 mph - N/A   Overcast
12:53 AM 34.0 °F 22.4 °F 32.0 °F 92% 29.71 in 10.0 mi SW 20.7 mph - N/A   Overcast
1:53 AM 34.0 °F 24.2 °F 32.0 °F 92% 29.75 in 10.0 mi SW 15.0 mph - N/A   Overcast
2:24 AM 33.8 °F 26.4 °F 32.0 °F 93% 29.72 in 10.0 mi SW 9.2 mph - N/A   Overcast
2:30 AM 33.8 °F 26.4 °F 32.0 °F 93% 29.72 in 10.0 mi SW 9.2 mph - N/A   Overcast
2:53 AM 34.0 °F 26.6 °F 32.0 °F 92% 29.77 in 10.0 mi SW 9.2 mph - N/A   Overcast
2:59 AM 33.8 °F 26.4 °F 30.2 °F 87% 29.72 in 10.0 mi SW 9.2 mph - N/A   Overcast
3:53 AM 34.0 °F 25.0 °F 32.0 °F 92% 29.78 in 10.0 mi SSW 12.7 mph - N/A   Overcast
4:53 AM 35.1 °F 25.5 °F 30.9 °F 85% 29.78 in 10.0 mi SSW 15.0 mph - N/A   Overcast
5:53 AM 35.1 °F 24.8 °F 30.9 °F 85% 29.80 in 10.0 mi SSW 17.3 mph - N/A   Overcast
6:53 AM 35.1 °F 25.2 °F 30.9 °F 85% 29.82 in 10.0 mi SSW 16.1 mph - N/A   Overcast
7:53 AM 35.1 °F 24.1 °F 30.0 °F 82% 29.85 in 10.0 mi SSW 19.6 mph - N/A   Overcast
8:53 AM 36.0 °F 25.6 °F 30.9 °F 82% 29.87 in 10.0 mi SSW 18.4 mph - N/A   Mostly Cloudy
9:53 AM 37.0 °F 26.4 °F 30.9 °F 79% 29.91 in 10.0 mi SSW 20.7 mph 29.9 mph N/A   Mostly Cloudy
10:53 AM 37.0 °F 25.9 °F 32.0 °F 82% 29.91 in 10.0 mi SW 23.0 mph - N/A   Mostly Cloudy
11:53 AM 39.0 °F 28.3 °F 30.9 °F 73% 29.91 in 10.0 mi SW 24.2 mph 32.2 mph N/A   Mostly Cloudy
12:53 PM 39.9 °F 30.0 °F 30.9 °F 70% 29.91 in 10.0 mi SW 21.9 mph 29.9 mph N/A   Mostly Cloudy
1:53 PM 39.9 °F 29.7 °F 30.9 °F 70% 29.91 in 10.0 mi SW 23.0 mph - N/A   Mostly Cloudy
2:53 PM 39.9 °F 30.0 °F 30.9 °F 70% 29.92 in 10.0 mi SW 21.9 mph - N/A   Mostly Cloudy
3:53 PM 39.0 °F 30.3 °F 34.0 °F 82% 29.95 in 10.0 mi SSW 16.1 mph - N/A   Overcast
4:53 PM 39.0 °F 31.0 °F 34.0 °F 82% 29.95 in 10.0 mi SSW 13.8 mph - 0.00 in Rain Light Rain
5:53 PM 37.9 °F 29.6 °F 33.1 °F 83% 29.95 in 10.0 mi South 13.8 mph - 0.00 in   Overcast
6:53 PM 37.9 °F 29.6 °F 33.1 °F 83% 29.92 in 10.0 mi SSW 13.8 mph - N/A   Overcast
7:53 PM 37.9 °F 32.1 °F 33.1 °F 83% 29.92 in 10.0 mi South 8.1 mph - N/A   Overcast
8:53 PM 39.0 °F 29.6 °F 33.1 °F 79% 29.89 in 10.0 mi SSW 18.4 mph - N/A   Overcast
9:53 PM 39.0 °F 31.0 °F 33.1 °F 79% 29.88 in 10.0 mi South 13.8 mph 21.9 mph N/A   Overcast
10:53 PM 39.0 °F 32.8 °F 33.1 °F 79% 29.84 in 10.0 mi South 9.2 mph - 0.00 in Rain Light Rain
11:53 PM 37.9 °F 29.2 °F 34.0 °F 86% 29.78 in 10.0 mi South 15.0 mph - 0.00 in Rain Light Rain